Zurück zum Katalog

STARLINK-5256

AktivKommunikationVLEO
NORAD 54175·PAYLOAD·🇺🇸 United States

Gestartet Oct 28, 2022 von Vandenberg Space Force Base

Loading…

Nächste Überflüge (nächste 24 Stunden)

TLE

AktuellSource: CelesTrak SupGP

Epoche: Sep 14, 2026, 13:16 UTC

1 54175C 22141U   26257.55326389 -.00050488  00000+0 -14921-2 0  2577
2 54175  53.1567 221.7205 0001212  86.2170  78.5892 15.34406175    16

Verfolge STARLINK-5256 in Echtzeit mit AllMySat

Download on the App Store